Location: Condécourt
(49.0404°N, 1.9420°E)
Time: 00:08:49
(UTC+00:00)

Daily predictions for brighter satellites

Satellite Brightness Start Highest point End
(mag) Time Altitude Azimuth Time Altitude Azimuth Time Altitude Azimuth
ACS3 Solar Sail 4.1 02:01:21 10° NE 02:03:45 18° ENE 02:03:45 18° ENE
ADEOS Rocket 4.3 02:33:46 10° NNE 02:38:45 40° ENE 02:38:45 40° ENE
Cosmos 2219 Rocket 3.9 02:55:06 29° ENE 02:55:06 29° ENE 02:58:31 10° NE
USA 267 3.4 03:14:19 10° ENE 03:20:18 65° ESE 03:20:18 65° ESE
USA 238 DEB 4.3 03:33:04 43° N 03:33:04 43° N 03:38:23 10° NE
USA 238 4.3 03:33:10 43° N 03:33:10 43° N 03:38:29 10° NE
H-2A R/B 4.1 03:26:49 10° NNE 03:28:05 18° NNE 03:28:05 18° NNE
Cosmos 2278 Rocket 3.9 03:29:48 21° N 03:32:22 29° NE 03:37:15 10° ESE
Cosmos 2333 Rocket 3.4 03:39:30 33° N 03:39:30 33° N 03:42:46 10° NNE
COSMOS 2455 3.3 03:45:06 50° N 03:45:06 50° N 03:49:43 10° NNE
Lacrosse 5 rocket 4.0 03:46:58 12° NE 03:46:58 12° NE 03:47:15 10° NE
ADEOS II 4.3 03:39:05 10° N 03:39:55 14° N 03:39:55 14° N
ACS3 Solar Sail 2.1 03:43:21 10° N 03:47:53 53° N 03:47:53 53° N
BlueWalker 3 4.3 03:53:51 20° ESE 03:53:51 20° ESE 03:55:02 10° ESE
CENTAUR R/B 4.3 03:52:18 22° NNW 03:55:29 30° NNE 04:02:50 10° ENE
Cosmos 2360 Rocket 2.9 03:59:09 41° N 03:59:09 41° N 04:03:07 10° NNE
Cosmos 2322 Rocket 3.1 03:59:31 37° N 03:59:31 37° N 04:03:18 10° NNE
USA 234 3.1 03:51:53 10° SE 03:58:26 71° SW 03:58:53 69° WSW
Gbstr 26 Del rocket 4.3 03:59:16 39° SSE 03:59:41 40° SE 04:04:57 10° ENE
SL-16 R/B 3.6 04:06:02 24° NNW 04:06:02 24° NNW 04:09:02 10° NNE
Cosmos 44 Rocket 3.5 04:05:02 68° NNE 04:05:20 70° NE 04:10:28 10° SE
Cosmos 1943 Rocket 3.0 04:06:17 22° N 04:09:38 48° NE 04:14:58 10° SE
Okean 1-7 3.9 04:13:10 41° NNE 04:13:10 41° NNE 04:16:02 10° NNE
ARGOS 3.0 04:09:44 10° NNE 04:15:11 82° WNW 04:16:17 58° SSW
PAYLOAD A 4.2 04:10:34 10° NNE 04:16:01 78° ESE 04:20:30 15° S
Cosmos 1140 Rocket 3.5 04:15:55 38° NNW 04:17:55 74° ENE 04:23:00 10° SSE
NOSS 2-1 (D) 4.4 04:19:05 34° E 04:19:05 34° E 04:21:10 10° NE
Timation 2 Rocket 4.2 04:14:49 20° NNW 04:19:40 75° ENE 04:26:05 10° SE
CZ-2C R/B 2.3 04:15:31 10° NNE 04:20:32 82° WNW 04:21:33 58° SSW
Cosmos 1809 Rocket 4.3 04:17:35 10° S 04:23:42 86° W 04:29:50 10° N
ADEOS Rocket 3.5 04:19:25 10° N 04:25:28 44° WNW 04:25:41 44° WNW
NOSS 3-1 (C) 3.1 04:27:25 41° SSW 04:29:03 73° SE 04:34:44 10° NE
Iridium 4 Rocket 4.2 04:27:19 10° N 04:31:31 43° E 04:35:30 10° SSE
SJ 16-02 4.0 04:28:48 10° N 04:31:40 17° NE 04:34:31 10° E
Cosmos 2100 Rocket 3.8 04:25:47 10° N 04:31:56 82° W 04:38:06 10° S
Cosmos 2219 Rocket 2.4 04:36:50 45° WNW 04:37:14 46° NW 04:42:43 10° NNE
SL-24 R/B - RUBIN 2 4.0 04:39:22 51° W 04:40:10 56° NW 04:45:00 10° NNE
IRS-1D 4.2 04:35:40 10° NNE 04:40:33 53° E 04:45:22 10° S
TIMED 4.4 04:40:17 37° NNW 04:41:55 86° ENE 04:46:11 10° SSE
COSMOS 2428 2.7 04:41:30 11° SSW 04:47:01 88° ESE 04:52:45 10° NNE
USA 59 Rocket -0.8 04:50:48 67° N 04:50:48 67° N 04:53:28 10° NE
SL-08 RB Rocket 3.8 04:47:40 10° N 04:52:06 51° WNW 04:53:29 37° WSW
Cosmos 1459 Rocket 4.0 04:46:50 10° NNW 04:53:08 65° W 04:59:23 10° S
Cosmos 1864 Rocket 4.4 04:47:46 10° N 04:54:03 82° W 05:00:23 10° S
Cosmos 2322 3.6 04:50:01 17° SW 04:54:30 73° WNW 05:00:12 10° NNE
FengYun 1-2 T 4.2 04:51:33 10° NNE 04:57:08 88° WNW 05:02:44 10° SSW
COSMO-SKYMED 1 2.9 04:54:51 10° SSE 04:58:54 62° ENE 05:03:01 10° N
Meteor 2-21 4.4 04:53:21 10° SSW 04:59:23 64° WNW 05:05:26 10° N
Cosmos 407 Rocket 3.4 04:54:47 10° NNW 04:59:53 87° ENE 05:04:59 10° SSE
SKYMED 2 3.5 04:55:51 10° SSE 05:00:12 88° ENE 05:04:35 10° NNW
Cosmos 1727 Rocket 4.2 04:56:07 10° SW 05:02:01 46° WNW 05:08:01 10° N
Cosmos 2228 Rocket 3.6 05:03:28 34° WNW 05:03:28 34° WNW 05:07:14 10° N
Cosmos 1725 Rocket 3.9 04:57:16 10° NNW 05:03:37 78° W 05:09:54 10° S
USA 267 3.4 04:57:26 10° ENE 05:03:49 58° NNW 05:07:39 25° W
Cosmos 1980 4.2 05:01:17 10° SSW 05:06:50 61° ESE 05:12:25 10° NE
H-2A R/B 3.9 05:07:39 10° NNW 05:08:34 12° NNW 05:08:34 12° NNW
Cosmos 1802 Rocket 4.0 05:05:11 10° NNW 05:11:29 62° W 05:17:39 10° S
NOSS 3-1 (A) 3.3 05:08:34 10° SSW 05:13:13 66° SE 05:18:52 10° NE
Cosmos 2233 Rocket 4.0 05:08:28 10° N 05:14:50 90° N 05:21:08 10° S
Cosmos 1328 3.8 05:12:43 10° SSW 05:16:13 45° WNW 05:19:45 10° N
Cosmos 2278 Rocket 2.2 05:11:40 12° NW 05:16:51 62° WSW 05:22:24 10° SSE
Cosmos 1703 Rocket 3.5 05:13:19 10° SSW 05:17:36 58° WNW 05:21:57 10° N
Cosmos 2251 Rocket 3.8 05:13:21 10° NNW 05:18:43 73° ENE 05:24:04 10° SSE
NOSS 2-1 (E) 2.9 05:18:52 29° WSW 05:20:19 54° NW 05:23:21 10° NE
CZ-3 R/B 4.2 05:15:53 10° SSW 05:20:26 13° S 05:23:36 10° SSE
Cosmos 1939 Rocket 3.4 05:17:53 10° N 05:21:22 33° WNW 05:23:42 17° WSW
Lacrosse 5 rocket 2.5 05:20:39 19° NNW 05:21:36 22° N 05:24:17 10° NE
Meteor 2-16 Rocket 4.4 05:15:54 10° SSW 05:21:58 70° WNW 05:28:07 10° N
Cosmos 2173 Rocket 4.4 05:16:48 10° NNW 05:22:18 37° W 05:27:48 10° SSW
Cosmos 2333 Rocket 3.8 05:21:33 15° NW 05:22:40 16° NNW 05:26:12 10° N
Cosmos 2237 Rocket 2.4 05:17:26 10° SSW 05:23:05 75° ESE 05:28:45 10° NNE
USA-17 4.1 05:22:08 25° NW 05:23:48 89° NE 05:27:08 10° SE
SL-08 R/B 4.4 05:19:39 10° NNW 05:25:42 66° W 05:31:47 10° S
Cosmos 2292 Rocket 3.7 05:23:50 10° SSW 05:28:02 69° WNW 05:33:33 10° N
BlueWalker 3 3.1 05:27:40 21° WSW 05:28:42 24° SW 05:31:40 10° SSE
USA 276 3.8 05:29:39 14° SW 05:29:49 14° SW 05:31:25 10° S
COSMOS 2455 4.2 05:28:15 17° WNW 05:30:45 22° NNW 05:35:21 10° NNE
ACS3 Solar Sail 3.2 05:27:53 10° NNW 05:31:24 16° NW 05:32:01 16° WNW
Meteor 1-24 Rocket 3.9 05:27:12 10° SSW 05:32:46 50° WNW 05:38:13 10° N
Helios 1A Rocket 3.0 05:30:14 10° SSW 05:33:24 36° W 05:36:22 11° NNW
Cosmos 2369 Rocket 3.7 05:29:19 10° NNW 05:34:30 35° NE 05:39:40 10° ESE
CZ-4 R/B 3.9 05:31:06 10° N 05:35:56 57° WNW 05:40:38 10° SSW
Cosmos 1782 Rocket 3.7 05:33:42 10° NNW 05:37:59 51° W 05:42:13 10° S
USA 234 4.5 05:37:14 10° S 05:42:13 23° SW 05:46:14 13° W
Cosmos 2360 Rocket 3.9 05:40:55 13° NW 05:42:51 15° NNW 05:46:06 10° N
Cosmos 2322 Rocket 3.9 05:41:21 12° NW 05:43:16 14° NNW 05:46:15 10° N
Cosmos 2123 Rocket 4.3 05:37:41 10° SW 05:43:32 42° WNW 05:49:24 10° N
Meteor 2-5 Rocket 4.1 05:38:19 10° SW 05:43:59 46° WNW 05:49:37 10° N
NOAA 12 4.2 05:39:59 10° N 05:45:13 56° WNW 05:50:24 10° SW
Cosmos 1420 Rocket 4.1 05:39:58 10° SSW 05:45:14 84° ESE 05:50:34 10° NNE
Gbstr 26 Del rocket 3.6 05:41:19 13° WSW 05:45:56 81° NNW 05:52:16 10° ENE
CENTAUR R/B 3.8 05:40:11 10° NW 05:47:55 54° NE 05:56:56 10° ESE
SL-16 R/B 4.3 05:49:33 10° NNW 05:50:10 10° NNW 05:50:46 10° NNW
ARIANE 5 R/B 4.5 05:46:06 10° NNE 05:50:39 33° E 05:55:14 10° SSE
Cosmos 1943 Rocket 2.9 05:48:20 10° NW 05:53:10 31° WSW 05:57:57 10° SSW
Cosmos 1812 2.2 05:54:05 10° N 05:57:01 72° E 05:59:55 10° SSE
CZ-2C R/B 4.0 05:55:08 10° NNW 05:57:51 15° NW 06:00:36 10° W
Cosmos 1300 Rocket 4.4 05:54:36 10° NNW 05:58:21 29° W 06:02:04 10° SSW
SMAP 4.2 05:55:01 10° NNE 05:59:34 48° E 06:04:03 10° S
Cosmos 2346 Rocket 4.4 05:56:00 10° SSW 06:02:09 70° WNW 06:08:16 10° N
NOSS 2-1 (C) 4.1 06:00:51 11° W 06:03:08 21° NW 06:05:30 10° NNE
NOSS 2-1 (D) 4.3 06:04:54 11° W 06:07:09 19° NW 06:09:23 10° NNE
SJ 16-02 1.3 06:06:00 10° NNW 06:10:17 69° WSW 06:14:32 10° S
Iridium 4 Rocket 4.3 06:07:48 10° NNW 06:10:55 19° WNW 06:13:56 10° SW
Aureole 3 Rocket 3.4 06:07:09 10° NNW 06:11:20 63° W 06:17:05 10° S
Okean 1 Rocket 4.2 06:07:26 10° N 06:11:38 45° ENE 06:15:47 10° SSE
Cosmos 2061 Rocket 4.5 06:08:21 10° NNW 06:14:01 38° W 06:19:39 10° SSW
CBERS-1 4.0 06:10:14 10° NNE 06:15:22 75° WNW 06:20:28 10° SSW
SWARM A 4.2 06:13:52 10° SSW 06:17:09 62° W 06:20:27 10° N
IRS-1D 4.5 06:15:23 10° N 06:19:22 25° WNW 06:23:19 10° WSW
Cosmos 1190 Rocket 4.4 06:14:44 10° NW 06:19:43 44° WSW 06:24:39 10° S
Cosmos 1378 Rocket 3.5 06:15:29 10° S 06:19:46 88° W 06:24:04 10° N
NOSS 3-1 (C) 4.1 06:15:48 10° W 06:20:21 31° NNW 06:25:52 10° NE
Cosmos 676 Rocket 4.0 06:15:35 10° NNW 06:20:49 68° WSW 06:25:58 10° S
SL-16 R/B 2.8 06:15:44 10° SSW 06:21:20 64° ESE 06:26:59 10° NNE
In-Cosmos 22 Rocket 4.3 06:16:25 10° SSW 06:22:13 73° WNW 06:28:04 10° N
